| time (UTC) | temp C | wind direction | speed KPH | gust KPH | rain 1hr cm | rain 24hr cm | rain mn cm | humidity % | barometer mb |
| 20260505041704 | 11 | 288 | 0.0 | 1.6 | 0.00 | 0.00 | 0.00 | 81 | 1010.9 |
| 20260505041204 | 11 | 288 | 0.0 | 1.6 | 0.00 | 0.00 | 0.00 | 81 | 1010.8 |
| 20260505040706 | 11 | 288 | 0.0 | 1.6 | 0.00 | 0.00 | 0.00 | 81 | 1010.8 |
| 20260505035705 | 11 | 288 | 0.0 | 1.6 | 0.00 | 0.00 | 0.00 | 81 | 1010.9 |
| 20260505035204 | 11 | 288 | 0.0 | 1.6 | 0.00 | 0.00 | 0.00 | 81 | 1010.9 |
| 20260505034704 | 11 | 288 | 0.0 | 1.6 | 0.00 | 0.00 | 0.00 | 81 | 1010.9 |
| 20260505034205 | 11 | 288 | 0.0 | 1.6 | 0.00 | 0.00 | 0.00 | 81 | 1010.8 |
| 20260505033705 | 11 | 288 | 0.0 | 1.6 | 0.00 | 0.00 | 0.00 | 81 | 1010.8 |
| 20260505033205 | 11 | 288 | 0.0 | 1.6 | 0.00 | 0.00 | 0.00 | 80 | 1010.9 |
| 20260505032704 | 11 | 288 | 0.0 | 1.6 | 0.00 | 0.00 | 0.00 | 80 | 1011.0 |
| 20260505032204 | 11 | 288 | 0.0 | 1.6 | 0.00 | 0.00 | 0.00 | 80 | 1011.0 |
| 20260505031704 | 11 | 288 | 0.0 | 1.6 | 0.00 | 0.00 | 0.00 | 80 | 1011.0 |
| 20260505030204 | 11 | 288 | 0.0 | 1.6 | 0.00 | 0.00 | 0.00 | 80 | 1011.0 |
| 20260505025705 | 11 | 288 | 0.0 | 1.6 | 0.00 | 0.00 | 0.00 | 80 | 1011.2 |
| 20260505025205 | 11 | 288 | 0.0 | 1.6 | 0.00 | 0.00 | 0.00 | 80 | 1011.1 |
| 20260505024704 | 11 | 289 | 0.0 | 1.6 | 0.00 | 0.00 | 0.00 | 80 | 1011.1 |
| 20260505024211 | 11 | 289 | 0.0 | 1.6 | 0.00 | 0.00 | 0.00 | 79 | 1011.1 |
| 20260505023205 | 11 | 289 | 0.0 | 1.6 | 0.00 | 0.00 | 0.00 | 79 | 1011.2 |
| 20260505022731 | 11 | 289 | 0.0 | 1.6 | 0.00 | 0.00 | 0.00 | 79 | 1011.2 |
| 20260505022204 | 11 | 289 | 0.0 | 3.2 | 0.00 | 0.00 | 0.00 | 79 | 1011.2 |
| 20260505021704 | 11 | 289 | 0.0 | 3.2 | 0.00 | 0.00 | 0.00 | 79 | 1011.1 |
| 20260505021204 | 11 | 289 | 0.0 | 3.2 | 0.00 | 0.00 | 0.00 | 79 | 1011.2 |
| 20260505020704 | 11 | 290 | 0.0 | 1.6 | 0.00 | 0.00 | 0.00 | 79 | 1011.2 |
| 20260505015704 | 11 | 290 | 0.0 | 1.6 | 0.00 | 0.00 | 0.00 | 79 | 1011.1 |
| 20260505015205 | 11 | 290 | 0.0 | 1.6 | 0.00 | 0.00 | 0.00 | 79 | 1011.1 |
| 20260505014704 | 11 | 290 | 0.0 | 1.6 | 0.00 | 0.00 | 0.00 | 79 | 1011.1 |
| 20260505014205 | 11 | 290 | 0.0 | 1.6 | 0.00 | 0.00 | 0.00 | 79 | 1011.1 |
| 20260505013704 | 11 | 290 | 0.0 | 1.6 | 0.00 | 0.00 | 0.00 | 79 | 1011.2 |
| 20260505013207 | 11 | 290 | 0.0 | 3.2 | 0.00 | 0.00 | 0.00 | 79 | 1011.3 |
| 20260505011704 | 11 | 290 | 0.0 | 1.6 | 0.00 | 0.00 | 0.00 | 80 | 1011.6 |
| 20260505011204 | 11 | 290 | 0.0 | 1.6 | 0.00 | 0.00 | 0.00 | 80 | 1011.7 |
| 20260505010704 | 11 | 290 | 0.0 | 1.6 | 0.00 | 0.00 | 0.00 | 80 | 1011.8 |
| 20260505010205 | 11 | 290 | 0.0 | 1.6 | 0.00 | 0.00 | 0.00 | 80 | 1011.7 |
| 20260505005204 | 11 | 290 | 0.0 | 3.2 | 0.00 | 0.00 | 0.00 | 80 | 1011.8 |
| 20260505004704 | 11 | 290 | 0.0 | 3.2 | 0.00 | 0.00 | 0.00 | 80 | 1011.7 |
| 20260505004205 | 11 | 290 | 0.0 | 1.6 | 0.00 | 0.00 | 0.00 | 80 | 1011.7 |
| 20260505003705 | 11 | 290 | 0.0 | 1.6 | 0.00 | 0.00 | 0.00 | 81 | 1011.7 |
| 20260505003204 | 11 | 290 | 0.0 | 3.2 | 0.00 | 0.00 | 0.00 | 81 | 1011.7 |
| 20260505002705 | 11 | 290 | 0.0 | 3.2 | 0.00 | 0.00 | 0.00 | 81 | 1011.7 |
| 20260505002205 | 11 | 290 | 0.0 | 3.2 | 0.00 | 0.00 | 0.00 | 81 | 1011.8 |
| 20260505001704 | 11 | 289 | 0.0 | 1.6 | 0.00 | 0.00 | 0.00 | 81 | 1011.8 |
| 20260505001205 | 11 | 289 | 0.0 | 1.6 | 0.00 | 0.00 | 0.00 | 81 | 1011.9 |
| 20260505000707 | 12 | 289 | 0.0 | 1.6 | 0.00 | 0.00 | 0.00 | 81 | 1011.9 |
| 20260504235705 | 12 | 289 | 0.0 | 3.2 | 0.00 | 0.00 | 0.00 | 81 | 1011.9 |
| 20260504235204 | 12 | 289 | 0.0 | 3.2 | 0.00 | 0.00 | 0.00 | 82 | 1011.9 |
| 20260504234706 | 12 | 289 | 0.0 | 3.2 | 0.00 | 0.00 | 0.00 | 81 | 1012.0 |
| 20260504234205 | 12 | 289 | 0.0 | 3.2 | 0.00 | 0.00 | 0.00 | 82 | 1012.0 |
| 20260504233705 | 12 | 289 | 0.0 | 3.2 | 0.00 | 0.00 | 0.00 | 82 | 1012.1 |
| 20260504233204 | 12 | 289 | 0.0 | 3.2 | 0.00 | 0.00 | 0.00 | 82 | 1012.1 |
| 20260504232710 | 12 | 292 | 0.0 | 1.6 | 0.00 | 0.00 | 0.00 | 82 | 1012.2 |
| 20260504232205 | 12 | 296 | 0.0 | 1.6 | 0.00 | 0.00 | 0.00 | 82 | 1012.1 |
| 20260504231705 | 12 | 296 | 0.0 | 3.2 | 0.00 | 0.00 | 0.00 | 82 | 1012.1 |
| 20260504231214 | 12 | 296 | 0.0 | 3.2 | 0.00 | 0.00 | 0.00 | 82 | 1012.2 |
| 20260504225705 | 12 | 296 | 0.0 | 1.6 | 0.00 | 0.00 | 0.00 | 82 | 1012.1 |
| 20260504225205 | 12 | 298 | 0.0 | 3.2 | 0.00 | 0.00 | 0.00 | 82 | 1012.1 |
| 20260504224704 | 12 | 298 | 0.0 | 3.2 | 0.00 | 0.00 | 0.00 | 82 | 1012.1 |
| 20260504224204 | 12 | 298 | 0.0 | 1.6 | 0.00 | 0.00 | 0.00 | 83 | 1012.0 |
| 20260504223706 | 12 | 298 | 0.0 | 1.6 | 0.00 | 0.00 | 0.00 | 83 | 1012.1 |
| 20260504222705 | 12 | 298 | 0.0 | 1.6 | 0.00 | 0.00 | 0.00 | 83 | 1012.1 |
| 20260504221704 | 13 | 298 | 0.0 | 1.6 | 0.00 | 0.00 | 0.00 | 83 | 1012.1 |
| 20260504221205 | 13 | 298 | 0.0 | 1.6 | 0.00 | 0.00 | 0.00 | 83 | 1012.0 |
| 20260504220705 | 13 | 298 | 0.0 | 1.6 | 0.00 | 0.00 | 0.00 | 83 | 1012.0 |
| 20260504215205 | 13 | 298 | 0.0 | 3.2 | 0.00 | 0.00 | 0.00 | 83 | 1012.1 |
| 20260504214705 | 13 | 298 | 0.0 | 3.2 | 0.00 | 0.00 | 0.00 | 83 | 1012.1 |
| 20260504214204 | 13 | 298 | 0.0 | 1.6 | 0.00 | 0.00 | 0.00 | 83 | 1012.1 |
| 20260504213704 | 13 | 299 | 0.0 | 1.6 | 0.00 | 0.00 | 0.00 | 83 | 1012.1 |
| 20260504212204 | 13 | 299 | 0.0 | 0.0 | 0.00 | 0.00 | 0.00 | 83 | 1012.1 |
| 20260504211704 | 13 | 299 | 0.0 | 1.6 | 0.00 | 0.00 | 0.00 | 83 | 1012.1 |
| 20260504211204 | 13 | 299 | 0.0 | 1.6 | 0.00 | 0.00 | 0.00 | 83 | 1012.1 |
| 20260504210704 | 13 | 299 | 0.0 | 1.6 | 0.00 | 0.00 | 0.00 | 83 | 1012.1 |
| 20260504210204 | 13 | 299 | 0.0 | 1.6 | 0.00 | 0.00 | 0.00 | 83 | 1012.2 |
| 20260504205704 | 13 | 299 | 0.0 | 1.6 | 0.00 | 0.00 | 0.00 | 83 | 1012.1 |
| 20260504205204 | 13 | 299 | 0.0 | 1.6 | 0.00 | 0.00 | 0.00 | 83 | 1012.1 |
| 20260504204704 | 13 | 299 | 0.0 | 1.6 | 0.00 | 0.00 | 0.00 | 83 | 1012.1 |
| 20260504204204 | 13 | 299 | 0.0 | 0.0 | 0.00 | 0.00 | 0.00 | 83 | 1012.1 |
| 20260504203704 | 13 | 299 | 0.0 | 1.6 | 0.00 | 0.00 | 0.00 | 83 | 1012.1 |
| 20260504203206 | 13 | 299 | 0.0 | 1.6 | 0.00 | 0.00 | 0.00 | 83 | 1012.2 |
| 20260504202704 | 13 | 299 | 0.0 | 1.6 | 0.00 | 0.00 | 0.00 | 83 | 1012.1 |
| 20260504202204 | 13 | 299 | 0.0 | 1.6 | 0.00 | 0.00 | 0.00 | 83 | 1012.2 |
| 20260504201704 | 13 | 299 | 0.0 | 1.6 | 0.00 | 0.00 | 0.00 | 83 | 1012.2 |
| 20260504201205 | 13 | 299 | 0.0 | 1.6 | 0.00 | 0.00 | 0.00 | 83 | 1012.2 |
| 20260504200204 | 13 | 299 | 0.0 | 1.6 | 0.00 | 0.00 | 0.00 | 83 | 1012.1 |
| 20260504195705 | 13 | 299 | 0.0 | 1.6 | 0.00 | 0.00 | 0.00 | 83 | 1012.1 |
| 20260504195204 | 13 | 299 | 0.0 | 1.6 | 0.00 | 0.00 | 0.00 | 82 | 1012.1 |
| 20260504194706 | 13 | 299 | 0.0 | 1.6 | 0.00 | 0.00 | 0.00 | 82 | 1012.0 |
| 20260504194205 | 13 | 299 | 0.0 | 1.6 | 0.00 | 0.00 | 0.00 | 82 | 1011.9 |
| 20260504193704 | 13 | 299 | 0.0 | 1.6 | 0.00 | 0.00 | 0.00 | 82 | 1011.8 |
| 20260504193204 | 14 | 299 | 0.0 | 3.2 | 0.00 | 0.00 | 0.00 | 82 | 1011.8 |
| 20260504192705 | 14 | 299 | 0.0 | 3.2 | 0.00 | 0.00 | 0.00 | 82 | 1011.8 |
| 20260504192204 | 14 | 299 | 0.0 | 1.6 | 0.00 | 0.00 | 0.00 | 81 | 1011.8 |
| 20260504191205 | 14 | 299 | 0.0 | 3.2 | 0.00 | 0.00 | 0.00 | 81 | 1011.7 |
| 20260504190204 | 15 | 300 | 0.0 | 3.2 | 0.00 | 0.00 | 0.00 | 79 | 1011.6 |
| 20260504185705 | 15 | 299 | 0.0 | 1.6 | 0.00 | 0.00 | 0.00 | 79 | 1011.5 |
| 20260504185204 | 15 | 299 | 0.0 | 3.2 | 0.00 | 0.00 | 0.00 | 78 | 1011.5 |
| 20260504184705 | 15 | 299 | 0.0 | 3.2 | 0.00 | 0.00 | 0.00 | 78 | 1011.5 |
| 20260504184204 | 15 | 299 | 0.0 | 3.2 | 0.00 | 0.00 | 0.00 | 78 | 1011.5 |
| 20260504183705 | 15 | 299 | 0.0 | 3.2 | 0.00 | 0.00 | 0.00 | 77 | 1011.5 |
| 20260504183208 | 15 | 299 | 0.0 | 3.2 | 0.00 | 0.00 | 0.00 | 76 | 1011.5 |
| 20260504182704 | 15 | 299 | 0.0 | 1.6 | 0.00 | 0.00 | 0.00 | 76 | 1011.4 |
| 20260504182204 | 15 | 299 | 0.0 | 4.8 | 0.00 | 0.00 | 0.00 | 76 | 1011.4 |
| 20260504181704 | 16 | 299 | 0.0 | 4.8 | 0.00 | 0.00 | 0.00 | 76 | 1011.3 |
| 20260504181204 | 16 | 299 | 0.0 | 4.8 | 0.00 | 0.00 | 0.00 | 76 | 1011.3 |
| 20260504180704 | 16 | 298 | 1.6 | 4.8 | 0.00 | 0.00 | 0.00 | 77 | 1011.3 |
| 20260504180203 | 16 | 296 | 1.6 | 3.2 | 0.00 | 0.00 | 0.00 | 77 | 1011.4 |
| 20260504175704 | 15 | 296 | 0.0 | 3.2 | 0.00 | 0.00 | 0.00 | 78 | 1011.4 |
| 20260504175204 | 15 | 296 | 0.0 | 3.2 | 0.00 | 0.00 | 0.00 | 78 | 1011.4 |
| 20260504174704 | 15 | 296 | 1.6 | 6.4 | 0.00 | 0.00 | 0.00 | 78 | 1011.4 |
| 20260504173704 | 15 | 296 | 0.0 | 6.4 | 0.00 | 0.00 | 0.00 | 77 | 1011.5 |
| 20260504173204 | 15 | 302 | 1.6 | 6.4 | 0.00 | 0.00 | 0.00 | 78 | 1011.4 |
| 20260504172704 | 15 | 302 | 1.6 | 6.4 | 0.00 | 0.00 | 0.00 | 78 | 1011.4 |
| 20260504172204 | 15 | 300 | 1.6 | 6.4 | 0.00 | 0.00 | 0.00 | 78 | 1011.5 |
| 20260504171703 | 15 | 299 | 1.6 | 4.8 | 0.00 | 0.00 | 0.00 | 77 | 1011.5 |
| 20260504171205 | 15 | 292 | 0.0 | 6.4 | 0.00 | 0.00 | 0.00 | 78 | 1011.5 |
| 20260504170705 | 15 | 290 | 0.0 | 6.4 | 0.00 | 0.00 | 0.00 | 77 | 1011.6 |
| 20260504170205 | 15 | 290 | 1.6 | 4.8 | 0.00 | 0.00 | 0.00 | 78 | 1011.6 |
| 20260504160204 | 16 | 237 | 0.0 | 3.2 | 0.00 | 0.00 | 0.00 | 78 | 1011.6 |
| 20260504150705 | 15 | 237 | 0.0 | 3.2 | 0.00 | 0.00 | 0.00 | 79 | 1011.7 |
| 20260504150205 | 15 | 237 | 0.0 | 3.2 | 0.00 | 0.00 | 0.00 | 79 | 1011.7 |
| 20260504141205 | 15 | 238 | 1.6 | 1.6 | 0.00 | 0.00 | 0.00 | 77 | 1011.8 |
| 20260504140204 | 15 | 238 | 0.0 | 1.6 | 0.00 | 0.00 | 0.00 | 78 | 1011.8 |
| 20260504130704 | 15 | 250 | 0.0 | 3.2 | 0.00 | 0.00 | 0.00 | 78 | 1011.9 |
| 20260504130204 | 15 | 250 | 0.0 | 3.2 | 0.00 | 0.00 | 0.00 | 78 | 1011.9 |
| 20260504120204 | 15 | 250 | 0.0 | 3.2 | 0.00 | 0.00 | 0.00 | 81 | 1011.9 |
| 20260504110704 | 14 | 250 | 0.0 | 3.2 | 0.00 | 0.00 | 0.00 | 82 | 1012.1 |
| 20260504110204 | 13 | 250 | 0.0 | 3.2 | 0.00 | 0.00 | 0.00 | 82 | 1012.1 |
| 20260504100204 | 13 | 248 | 0.0 | 1.6 | 0.00 | 0.00 | 0.00 | 82 | 1012.0 |
| 20260504081707 | 12 | 245 | 1.6 | 4.8 | 0.00 | 0.00 | 0.00 | 83 | 1011.6 |
| 20260504081204 | 12 | 245 | 1.6 | 4.8 | 0.00 | 0.00 | 0.00 | 83 | 1011.6 |
| 20260504080704 | 12 | 245 | 1.6 | 3.2 | 0.00 | 0.00 | 0.00 | 83 | 1011.7 |
| 20260504080212 | 12 | 245 | 0.0 | 3.2 | 0.00 | 0.00 | 0.00 | 83 | 1011.6 |
| 20260504070205 | 12 | 243 | 1.6 | 4.8 | 0.00 | 0.00 | 0.00 | 82 | 1010.8 |
| 20260504060205 | 13 | 244 | 0.0 | 1.6 | 0.00 | 0.00 | 0.00 | 82 | 1010.2 |
| 20260504050714 | 13 | 227 | 0.0 | 3.2 | 0.00 | 0.00 | 0.00 | 82 | 1009.7 |
| 20260504050204 | 13 | 227 | 0.0 | 3.2 | 0.00 | 0.00 | 0.00 | 82 | 1009.6 |
| 20260504045704 | 13 | 227 | 0.0 | 3.2 | 0.00 | 0.00 | 0.00 | 82 | 1009.6 |